Regional Weather Roundup
Issued by NWS State College, PA

Home | Current Version | Previous Version | Text Only | Print | Product List | Glossary Off
Versions: 1 2 3 4 5 6 7 8 9 10 11 12 13 14 15 16 17 18 19 20 21 22 23 24 25 26 27 28 29 30 31 32 33 34 35 36 37 38 39 40 41 42 43 44 45 46 47 48 49 50

624
ASUS41 KCTP 231303
RWRCTP

REGIONAL WEATHER ROUNDUP
NATIONAL WEATHER SERVICE STATE COLLEGE PA
900 AM EDT WED AUG 23 2017

Note: "fair" indicates few or no clouds below 12,000 feet with no
significant weather and/or obstructions to visibility.

* = STATION THAT DOES NOT REPORT PRECIPITATION /E.G. RAIN...SNOW...ETC/
    THUNDER OR FOG.

PAZ002>004-007>009-013>016-020>023-029>032-231400-
WESTERN PENNSYLVANIA

CITY           SKY/WX    TMP DP  RH WIND       PRES   REMARKS
ERIE           SUNNY     69  53  56 W13       29.92R
MEADVILLE      SUNNY     64  57  78 W5        29.95S
FRANKLIN*      SUNNY     63  55  77 W5        29.96S
NEW CASTLE     FAIR      64  61  90 SW3       29.97R
BEAVER COUNTY  PTSUNNY   66  59  77 NW5       29.98R
BUTLER*        MOSUNNY   64  60  87 VRB3      29.98R
PITTSBURGH INT MOSUNNY   68  59  73 N10       29.96R
PITTSBURGH     SUNNY     67  59  75 N8        29.96R
INDIANA*       CLOUDY    64  64 100 N5        29.99R
LATROBE        PTSUNNY   64  64 100 CALM      29.97R
WASHINGTON CO* CLOUDY    66  59  77 N5        29.97R
$$

PAZ004>006-010>012-017>019-024>028-033>037-041-042-045-046-049>053-231400-
CENTRAL PENNSYLVANIA

CITY           SKY/WX    TMP DP  RH WIND       PRES   REMARKS
BRADFORD       SUNNY     60  56  86 W7        29.95R
DUBOIS         MOSUNNY   62  58  86 W6        29.95S
CLEARFIELD     MOSUNNY   64  61  90 VRB3      29.95S
JOHNSTOWN      MOSUNNY   64  57  78 VRB7      29.97R
ALTOONA        SUNNY     68  58  70 N5        29.95R
STATE COLLEGE  MOSUNNY   66  57  72 NW7       29.93R
WILLIAMSPORT   SUNNY     68  59  73 W3        29.88S
SELINSGROVE    MOSUNNY   69  59  70 CALM      29.90R
FT INDIANTOWN  PTSUNNY   71  55  55 CALM      29.88R
CAPITAL CITY   MOSUNNY   74  60  61 N7        29.88R
HARRISBURG     MOSUNNY   74  62  66 NW7       29.87R
YORK           MOSUNNY   74  64  71 N6        29.89R
$$

PAZ038>040-043-044-047-048-054-055-060>062-067>071-231400-
EASTERN PENNSYLVANIA

CITY           SKY/WX    TMP DP  RH WIND       PRES   REMARKS
SCRANTON       SUNNY     67  56  67 NW6       29.90R
MOUNT POCONO   SUNNY     62  50  64 NW15G22   29.90R
ALLENTOWN      MOSUNNY   71  55  56 N5        29.87R
QUAKERTOWN*    MOSUNNY   68  55  64 N5        29.88R
READING        SUNNY     73  60  63 N10       29.86R
LANCASTER      MOSUNNY   74  67  78 N8        29.88R
COATESVILLE    PTSUNNY   73  68  83 N8        29.89R
POTTSTOWN      MOSUNNY   71  61  70 N10       29.88R
BLUE BELL      PTSUNNY   72  61  68 N7        29.87R
DOYLESTOWN     MOSUNNY   72  63  73 NW8       29.85R
WILLOW GROVE   NOT AVBL
NORTH PHILA    CLOUDY    79  66  64 NW15      29.86R
PHILADELPHIA   CLOUDY    77  69  76 NW13      29.84R
$$




USA.gov is the U.S. government's official web portal to all federal, state and local government web resources and services.